Weather Roundup
Issued by NWS

Home | Current Version | Previous Version | Text Only | Print | Product List | Glossary On
Versions: 1 2 3 4 5 6 7 8 9 10 11 12 13 14 15 16 17 18 19 20 21 22 23 24 25 26 27 28 29 30 31 32 33 34 35 36 37 38 39 40 41 42 43 44 45 46 47 48 49 50
000
NZUS93 KARX 210759
HRRWXR

CURRENT HOURLY OBSERVATIONS ACROSS
MUCH OF THE UPPER MISSISSIPPI VALLEY
NATIONAL WEATHER SERVICE LA CROSSE WI
200 AM CST WED FEB 21 2018


...SOUTHEAST MINNESOTA...


CITY           SKY/WX    TMP DP  RH WIND       PRES   REMARKS
ROCHESTER      MIX PCPN   7   3  84 NW13      30.39R WCI  -9
ROCHESTER/MAYO FAIR       8   3  80 W8        30.41R WCI  -5
WINONA         FAIR      12   5  73 NW6       30.42R WCI   3
AUSTIN         FAIR       9   1  72 NW6       30.41R WCI  -1
ALBERT LEA     FAIR       9   1  72 NW3       30.41R
DODGE CENTER   FAIR       7   1  78 W5        30.39R WCI  -2
PRESTON        FAIR       8   3  81 NW8       30.39R WCI  -5
OWATONNA       FAIR       5   0  78 CALM      30.42R
FARIBAULT      FAIR       5   0  78 CALM      30.43R
$$

...ELSEWHERE IN MINNESOTA...


CITY           SKY/WX    TMP DP  RH WIND       PRES   REMARKS
MINNEAPOLIS    FAIR       7   2  80 W7        30.43R WCI  -5
INTNL FALLS    FAIR      -6  -9  86 S3        30.21R
DULUTH         FAIR       2  -3  80 W13       30.26R WCI -15
RED WING       FAIR       7   0  72 CALM      30.43R
REDWOOD FALLS  CLOUDY     0  -5  79 W9        30.44R WCI -15
MANKATO        FAIR       5   0  79 W10       30.45R WCI -10
WORTHINGTON    CLOUDY     1  -3  83 W10       30.43R WCI -15
FAIRMONT       CLEAR      4  -1  80 W10       30.45R WCI -11
$$

...SOUTHWEST WISCONSIN...


CITY           SKY/WX    TMP DP  RH WIND       PRES   REMARKS
LA CROSSE      FAIR      15   9  76 NW9       30.41R WCI   3
PRAIRIE DU CHI FAIR      18  11  72 NW9       30.39R WCI   7
BOSCOBEL       FAIR      20  12  71 NW10      30.39R WCI   9
LONE ROCK      NOT AVBL
PLATTEVILLE    FAIR      20  17  85 NW15      30.33R WCI   7
FORT MC COY    FAIR      16  12  85 W5        30.38R WCI   9
CAMP DOUGLAS   FAIR      17  12  81 NW10      30.35R WCI   5
MAUSTON-NEW LI CLOUDY    20  15  79 NW13      30.33R WCI   7
VIROQUA        PTSUNNY   15  13  93 NW7       30.33R WCI   5
WIS DELLS      FAIR      20  12  71 NW10G17   30.31R WCI   9
$$

...ELSEWHERE IN WISCONSIN...


CITY           SKY/WX    TMP DP  RH WIND       PRES   REMARKS
MILWAUKEE      CLOUDY    29  20  69 NW14G24   30.26R WCI  18
MADISON        MOCLDY    22  14  71 N10G20    30.32R WCI  11
GREEN BAY      CLOUDY    25  17  72 W14       30.27R WCI  13
EAU CLAIRE     NOT AVBL
BLACK RVR FLS  FAIR      16   9  75 W6        30.36R WCI   7
MEDFORD        FAIR      11   7  84 W7        30.26R WCI   0
WAUSAU         FAIR      15   9  76 NW8       30.27R WCI   4
WIS RAPIDS     FAIR      16  10  77 NW10      30.33R WCI   4
MARSHFIELD     FAIR      13   8  81 NW13      30.29R WCI  -2
RICE LAKE      FAIR       6   1  78 W5        30.36R WCI  -3
$$

...NORTHEAST IOWA...


CITY           SKY/WX    TMP DP  RH WIND       PRES   REMARKS
WATERLOO       FAIR      13   7  77 NW17      30.43R WCI  -4
DUBUQUE        FAIR      19  12  74 N15       30.33R WCI   5
DECORAH        FAIR      12   9  85 NW14      30.38R WCI  -3
MASON CITY     CLOUDY     9   3  77 NW13      30.44R WCI  -7
CHARLES CITY   FAIR      12   9  85 NW15G24   30.43R WCI  -4
OELWEIN        FAIR      14  14 100 NW17      30.40R WCI  -3
$$

...ELSEWHERE IN IOWA...


CITY           SKY/WX    TMP DP  RH WIND       PRES   REMARKS
DES MOINES     MOCLDY    15   9  76 NW13      30.46R WCI   1
IOWA CITY      MOCLDY    21  12  68 NW13      30.41R WCI   9
FORT DODGE     CLOUDY     8   4  83 NW5       30.47R WCI   0
MARSHALLTOWN   PTCLDY    14   8  77 NW16      30.43R WCI  -2
CEDAR RAPIDS   FAIR      19  12  74 NW15      30.38R WCI   5
$$

...NORTHERN ILLINOIS...


CITY           SKY/WX    TMP DP  RH WIND       PRES   REMARKS
CHICAGO-OHARE  LGTSLEET  32  27  81 NW15      30.22R WCI  22
CHICAGO-MIDWAY LGT RAIN  34  31  88 NW13      30.23R FOG     WCI  25
MOLINE         MOCLDY    24  16  71 NW12      30.34R WCI  13
ROCKFORD       CLOUDY    28  21  75 N16       30.29R WCI  16
PEORIA         CLOUDY    27  23  85 N10       30.31R WCI  17
$$

NOTE: "FAIR" INDICATES FEW OR NO CLOUDS BELOW 12,000 FEET WITH NO
SIGNIFICANT WEATHER AND/OR OBSTRUCTIONS TO VISIBILITY. WIND
SPEEDS ARE IN MILES-PER-HOUR.




USA.gov is the U.S. government's official web portal to all federal, state and local government web resources and services.